User: anonymous   Login
Location: Key Biscayne
(25.6930°N, 80.1630°W)
Time: 22:26:03
(UTC-04:00)
Language:

CZ-2D R/B - Orbit

View from above orbital plane
View from above orbital plane
View from above satellite
View from above satellite

Ground track
Ground track

The orbit data is extracted from the following two-line orbital elements,

1 28738U 05024B   15244.84958314  .00001619  00000-0  10464-3 0  9992
2 28738  97.5812 280.7159 0014323  92.5130 267.7739 15.09570264557037
Epoch (UTC): 01 September 2015 20:23:23
Eccentricity: 0.0014323
inclination: 97.5812°
perigee height: 527 km
apogee height: 547 km
right ascension of ascending node: 280.7159°
argument of perigee: 92.5130°
revolutions per day: 15.09570264
mean anomaly at epoch: 267.7739°
orbit number at epoch: 55703

The dashed part of the orbit path shows where the satellite is in the earth's shadow,  

DLR